Location: Newark
(34.0131°N, 4.3314°W)
Time: 01:11:56
(UTC+00:00)

SR - Pass Details

Date: 21 October 2019
Orbit: 574 x 882 km, 66.7° (Epoch: 14 November)

Event Time Altitude Azimuth Distance (km) Brightness Sun altitude
Rises 20:43:21 0° 177° (S) 2,950 - -39.2°
Reaches altitude 10° 20:45:49 10° 165° (SSE) 2,092 - -39.7°
Maximum altitude 20:49:51 28° 107° (ESE) 1,317 - -40.5°
Drops below altitude 10° 20:54:13 10° 49° (NE) 2,277 - -41.4°
Sets 20:56:59 0° 39° (NE) 3,264 - -41.9°
